Regional Weather Roundup
Issued by NWS

Home | Current Version | Previous Version | Graphics & Text | Print | Product List | Glossary On
Versions: 1 2 3 4 5 6 7 8 9 10 11 12 13 14 15 16 17 18 19 20 21 22 23 24 25 26 27 28 29 30 31 32 33 34 35 36 37 38 39 40 41 42 43 44 45 46 47 48 49 50
000
ASUS43 KLMK 272102
RWRKY
KENTUCKY REGIONAL WEATHER ROUNDUP
NATIONAL WEATHER SERVICE LOUISVILLE KY
400 PM EST THU NOV 27 2014

NOTE "FAIR" INDICATES FEW OR NO CLOUDS BELOW 12,000 FEET
WITH NO SIGNIFICANT WEATHER AND/OR OBSTRUCTIONS TO VISIBILITY.

KYZ001>023-026-027-061>063-070>075-272200-
WESTERN AND SOUTH CENTRAL KENTUCKY

CITY           SKY/WX    TMP DP  RH WIND       PRES   REMARKS
PADUCAH        CLOUDY    34  25  69 NW8       30.47S WCI  27
HENDERSON      CLOUDY    30  23  74 W14       30.45S WCI  20
OWENSBORO      CLOUDY    31  25  78 NW9G18    30.45R WCI  23
HOPKINSVILLE   CLOUDY    33  22  62 NW10      30.45R WCI  25
BOWLING GREEN  CLOUDY    31  22  69 NW8       30.44R WCI  23
GLASGOW        NOT AVBL
$$

KYZ024-025-028>034-038-045-046-053-272200-
NORTH CENTRAL KENTUCKY

CITY           SKY/WX    TMP DP  RH WIND       PRES   REMARKS
LOUISVILLE/SDF CLOUDY    33  22  63 W15       30.38R WCI  23
LOUISVILLE/LOU CLOUDY    33  22  63 W14       30.38R WCI  23
FORT KNOX      CLOUDY    30  24  78 W7        30.37R WCI  24
$$

KYZ035>037-039>044-047>052-055>060-089>105-272200-
NORTHEAST KENTUCKY

CITY           SKY/WX    TMP DP  RH WIND       PRES   REMARKS
LEXINGTON      CLOUDY    32  23  69 W13       30.33R WCI  22
COVINGTON      CLOUDY    32  22  66 W15       30.30R WCI  22
FRANKFORT      CLOUDY    32  21  64 W9        30.33S WCI  24
$$

KYZ054-064>069-076>088-106>120-272200-
SOUTHEAST KENTUCKY

CITY           SKY/WX    TMP DP  RH WIND       PRES   REMARKS
JACKSON        CLOUDY    31  22  69 W7        30.28R WCI  24
LONDON         LGT SNOW  31  25  78 W9        30.33R WCI  23
SOMERSET       NOT AVBL
MIDDLESBORO    NOT AVBL
MONTICELLO     CLOUDY    32  26  78 NW8       30.40R WCI  25
$$




USA.gov is the U.S. government's official web portal to all federal, state and local government web resources and services.